Home   Weather   Alta   Past weeks

Flag for Norway Past Weather in Alta, Norway — Yesterday and Last 2 Weeks

Now
27 °F

Chilly.


Feels Like: 14 °F
Forecast: 23 / 29 °F
Wind: 17 mph from Northwest

Location: Alta Lufthavn

Current Time: Dec 9, 2016 at 12:59:25 pm

Latest Report: Dec 9, 2016 at 12:00 pm


Visibility: N/A

Pressure: 29.41 "Hg

Humidity: 92%

Dew Point: 25 °F

Location of AltaLocation

Past Weather in Alta — Graph

°F

Alta Temperature Yesterday

Maximum temperature yesterday: 36 °F (at 6:00 pm)
Minimum temperature yesterday: 29 °F (at 9:00 pm)
Average temperature yesterday: 32 °F

High & Low Weather Summary for the Past Weeks

 TemperatureHumidityPressure
High38 °F (Dec 7, 2:00 am)96% (Nov 30, 5:00 pm)30.08 "Hg (Nov 30, 5:00 pm)
Low3 °F (Dec 3, 10:00 am)52% (Dec 7, 6:00 pm)29.03 "Hg (Nov 30, 4:00 am)
Average23 °F82%29.59 "Hg
* Reported Nov 24 11:00 am — Dec 9 11:00 am, Alta, Weather by CustomWeather, © 2016

Note: Actual official high and low records may vary slightly from our data, if they occured in-between our weather recording intervals... More about our weather records

Advertising

Alta Weather History for the Previous 24 Hours

Scroll right to see more
 ConditionsComfort  
Time TempWeatherWind HumidityBarometerVisibility
11:00 am
Fri, Dec 9
27 °FChilly.18 mph72%29.35 "HgN/A
10:00 am28 °FChilly.17 mph62%29.32 "HgN/A
9:00 am26 °FChilly.20 mph71%29.29 "HgN/A
8:00 am26 °FChilly.17 mph70%29.29 "HgN/A
7:00 am25 °FCold.16 mph84%29.29 "HgN/A
6:00 am25 °FCold.18 mph83%29.26 "HgN/A
5:00 am25 °FChilly.17 mph90%29.26 "HgN/A
4:00 am26 °FChilly.15 mph81%29.23 "HgN/A
3:00 am27 °FChilly.13 mph90%29.23 "HgN/A
2:00 am28 °FChilly.10 mph92%29.18 "HgN/A
1:00 am28 °FChilly.16 mph93%29.18 "HgN/A
12:00 am28 °FChilly.17 mph93%29.18 "HgN/A
11:00 pm
Thu, Dec 8
29 °FChilly.18 mph91%29.12 "HgN/A
10:00 pm30 °FChilly.20 mph90%29.06 "HgN/A
9:00 pm29 °FChilly.21 mph85%29.06 "HgN/A
8:00 pm30 °FChilly.16 mph95%29.03 "HgN/A
7:00 pm32 °FChilly.16 mph84%29.03 "HgN/A
6:00 pm36 °FChilly.9 mph74%29.03 "HgN/A
5:00 pm35 °FChilly.8 mph76%29.03 "HgN/A
4:00 pm33 °FChilly.1 mph78%29.09 "HgN/A
3:00 pm34 °FChilly.2 mph79%29.09 "HgN/A
2:00 pm34 °FChilly.5 mph72%29.12 "HgN/A
1:00 pm32 °FChilly.3 mph80%29.12 "HgN/A
Weather by CustomWeather, © 2016

See weather overviewHow to use our weather pages